Regional Weather Roundup
Issued by NWS

Home | Current Version | Previous Version | Text Only | Print | Product List | Glossary Off
Versions: 1 2 3 4 5 6 7 8 9 10 11 12 13 14 15 16 17 18 19 20 21 22 23 24 25 26 27 28 29 30 31 32 33 34 35 36 37 38 39 40 41 42 43 44 45 46 47 48 49 50

000
ASUS43 KFSD 301110
RWRSD

WEATHER ROUNDUP FOR SOUTH DAKOTA
NATIONAL WEATHER SERVICE SIOUX FALLS SD
600 AM CDT MON MAR 30 2015

NOTE: "FAIR" INDICATES FEW OR NO CLOUDS BELOW 12,000 FEET WITH NO
SIGNIFICANT WEATHER AND/OR OBSTRUCTIONS TO VISIBILITY.


SDZ001>005-009-010-012>017-301200-
NORTHWEST AND NORTH CENTRAL SOUTH DAKOTA

CITY           SKY/WX    TMP DP  RH WIND       PRES   REMARKS
BUFFALO          N/A     37  27  67 W14       29.90R
FAITH            N/A     41  26  55 W8        29.93S
MOBRIDGE       CLOUDY    33  28  81 CALM      29.87F
$$

SDZ012>016-024>037-041>051-057-063-072>074-301200-
SOUTHWEST AND SOUTH CENTRAL SOUTH DAKOTA

CITY           SKY/WX    TMP DP  RH WIND       PRES   REMARKS
RAPID CTY ARPT CLEAR     42  23  46 NW14      29.98S
PIERRE         MOCLDY    41  29  62 W3        29.92F
CUSTER         PTCLDY    40  18  41 NW7       30.05S
ELLSWORTH AFB  PTCLDY    41  23  48 W10       29.98R
PHILIP         CLEAR     33  25  72 W10       29.95S WCI  25
PINE RIDGE     CLEAR     35  23  61 W5        30.01S
SPEARFISH      FAIR      46  19  34 W7        30.01R
WINNER         FAIR      44  19  36 NW8       29.97S
$$

SDZ004>011-016>023-039-040-301200-
NORTHEAST SOUTH DAKOTA

CITY           SKY/WX    TMP DP  RH WIND       PRES   REMARKS
ABERDEEN       MOCLDY    29  23  78 S7        29.91F WCI  22
WATERTOWN      PTCLDY    28  23  81 CALM      29.94F
SISSETON         N/A     48  30  49 CALM      29.90F
$$

SDZ017-020-022-023-036>040-048>070-301200-
SOUTHEAST SOUTH DAKOTA

CITY           SKY/WX    TMP DP  RH WIND       PRES   REMARKS
SIOUX FALLS    MOCLDY    31  21  66 SW3       30.01S
HURON          CLEAR     35  24  64 S5        29.94F
CHAMBERLAIN    PTCLDY    31  23  74 SE5       29.95F WCI  26
MITCHELL       CLEAR     41  23  48 SW6       29.98F
YANKTON        CLEAR     36  21  55 CALM      30.03S
$$

ABBREVIATIONS USED IN REMARKS
   TC - TEMPERATURE IN CELSIUS
  WCI - WIND CHILL INDEX
   HX - HEAT INDEX
  VSB - VISIBILITY




USA.gov is the U.S. government's official web portal to all federal, state and local government web resources and services.